Flag for Liberia Weather past 2 weeks in Kakata, Liberia

Now
75 °F

Fog.


Feels Like: 74 °F
Forecast: 70 / 95 °F
Wind: No wind

Location: Roberts Field

Current Time: Jan 29, 2015 at 8:24:19 AM

Latest Report: Jan 29, 2015 at 8:00 AM


Visibility: 3 mi

Pressure: 29.89 "Hg

Humidity: 94%

Dew point: 73 °F

Location of KakataLocation

Historic Weather in Kakata — Graph

°F

Kakata temperature yesterday

Maximum temperature yesterday: 93 °F (at 2:00 PM)
Minimum temperature yesterday: 75 °F (at 6:30 AM)
Average temperature yesterday: 82 °F

Past Weeks' High & Low Weather Summary

 TemperatureHumidityPressure
High93 °F (Jan 28, 2:00 PM)100% (Jan 18, 3:30 AM)29.98 "Hg (Jan 18, 3:30 AM)
Low50 °F (Jan 19, 4:30 AM)35% (Jan 14, 3:30 PM)29.56 "Hg (Jan 28, 6:30 PM)
Average81 °F81%29.88 "Hg
* Reported Jan 14 7:00 AM — Jan 29 7:30 AM, Kakata, Weather by CustomWeather, © 2014

Note: Actual official high and low records may vary slightly from our data, if they occured in-between our weather recording intervals... More about our weather records

Advertising

Kakata weather history for previous 24 hours

 ConditionsComfort  
Time TempWeatherWind HumidityBarometerVisibility
7:30 AM
Jan 29
73 °FFog.No wind94%29.89 "Hg1 mi
7:00 AM73 °FDense fog.No wind100%29.86 "Hg1 mi
6:30 AM73 °FPassing clouds.No wind94%29.86 "Hg4 mi
6:00 AM73 °FPassing clouds.No wind94%29.86 "Hg4 mi
5:30 AM73 °FPassing clouds.No wind94%29.83 "Hg4 mi
5:00 AM75 °FPassing clouds.No wind94%29.83 "Hg4 mi
2:00 AM75 °FPassing clouds.No wind94%29.86 "Hg4 mi
1:00 AM75 °FPassing clouds.No wind94%29.86 "Hg4 mi
12:00 AM75 °FPassing clouds.No wind94%29.86 "Hg5 mi
11:30 PM
Jan 28
75 °FPassing clouds.No wind94%29.89 "Hg5 mi
11:00 PM75 °FPassing clouds.No wind94%29.89 "Hg5 mi
10:30 PM77 °FPassing clouds.No wind94%29.89 "Hg5 mi
9:30 PM77 °FPassing clouds.No wind94%29.86 "Hg6 mi
9:00 PM79 °FClear.No wind84%29.86 "Hg6 mi
8:30 PM79 °FClear.No wind84%29.86 "Hg6 mi
8:00 PM79 °FClear.No wind89%29.86 "Hg6 mi
7:30 PM81 °FClear.No wind84%29.83 "Hg6 mi
7:00 PM82 °FClear.No wind74%29.56 "Hg6 mi
6:30 PM82 °FClear.3 mph74%29.56 "Hg6 mi
6:00 PM84 °FSunny.3 mph70%29.80 "Hg6 mi
5:30 PM86 °FPassing clouds.6 mph62%29.80 "Hg6 mi
5:00 PM88 °FPassing clouds.7 mph55%29.80 "Hg6 mi
4:30 PM88 °FPassing clouds.8 mph59%29.80 "Hg6 mi
4:00 PM90 °FPassing clouds.9 mph55%29.77 "Hg6 mi
3:30 PM90 °FPassing clouds.12 mph55%29.80 "HgN/A
3:00 PM90 °FPassing clouds.10 mph55%29.80 "HgN/A
2:30 PM90 °FPassing clouds.9 mph59%29.80 "HgN/A
2:00 PM93 °FPassing clouds.3 mph47%29.83 "HgN/A
1:30 PM91 °FPassing clouds.No wind46%29.83 "HgN/A
1:00 PM90 °FSunny.No wind52%29.86 "Hg10 mi
12:30 PM90 °FSunny.No wind49%29.86 "Hg10 mi
12:00 PM90 °FSunny.3 mph59%29.89 "Hg10 mi
11:30 AM86 °FSunny.6 mph62%29.89 "Hg10 mi
11:00 AM86 °FSunny.No wind66%29.92 "Hg10 mi
10:30 AM82 °FPassing clouds.5 mph79%29.92 "HgN/A
10:00 AM82 °FPassing clouds.No wind74%29.92 "HgN/A
9:30 AM79 °FPassing clouds.5 mph89%29.92 "HgN/A
9:00 AM79 °FPassing clouds.3 mph89%29.92 "Hg5 mi
8:30 AM79 °FScattered clouds.No wind94%29.92 "Hg5 mi
8:00 AM77 °FScattered clouds.No wind94%29.89 "Hg4 mi
Weather by CustomWeather, © 2014

See weather overviewHow to use our weather pages